Location: Unspecified
(42.3650°N, 71.1030°W)
Time: 22:17:21
(UTC+00:00)

Transit 2A - Visible Passes

Search period start: 25 June 2024 00:00
Search period end: 05 July 2024 00:00
Orbit: 592 x 959 km, 66.7° (Epoch: 25 June)

Date Brightness Start Highest point End Pass type
(mag) Time Alt. Az. Time Alt. Az. Time Alt. Az.
25 Jun 8.4 02:12:24 10° N 02:16:39 19° NE 02:20:59 10° E visible
25 Jun 6.5 03:54:32 10° NNW 04:00:47 78° ENE 04:02:53 45° SE visible
25 Jun 8.0 05:39:05 10° WNW 05:43:17 19° WSW 05:43:17 19° WSW visible
26 Jun 8.6 01:37:38 10° N 01:40:59 15° NE 01:44:24 10° ENE visible
26 Jun 6.8 03:19:21 10° NNW 03:25:29 57° NE 03:28:19 32° ESE visible
26 Jun 7.5 05:03:09 10° NW 05:08:21 28° WSW 05:08:42 28° WSW visible
27 Jun 8.7 01:03:11 10° N 01:05:15 12° NNE 01:07:20 10° NE visible
27 Jun 7.3 02:44:14 10° NNW 02:50:06 42° NE 02:53:47 22° ESE visible
27 Jun 7.1 04:27:30 10° NW 04:33:17 40° WSW 04:34:10 38° SW visible
28 Jun 7.7 02:09:10 10° NNW 02:14:39 31° NE 02:19:18 14° ESE visible
28 Jun 6.7 03:52:02 10° NW 03:58:09 56° WSW 03:59:41 45° SSW visible
29 Jun 8.0 01:34:11 10° N 01:39:07 24° NE 01:44:09 10° E visible
29 Jun 6.4 03:16:41 10° NNW 03:22:58 79° WSW 03:25:15 42° SSE visible
29 Jun 8.4 05:02:27 10° WNW 05:05:13 13° W 05:05:39 13° WSW visible
30 Jun 8.3 00:59:17 10° N 01:03:31 19° NE 01:07:50 10° E visible
30 Jun 6.5 02:41:26 10° NNW 02:47:42 76° ENE 02:50:51 32° SE visible
30 Jun 8.0 04:25:55 10° WNW 04:30:16 20° WSW 04:31:15 19° WSW visible
01 Jul 6.8 02:06:14 10° NNW 02:12:23 56° NE 02:16:30 22° SE visible
01 Jul 7.6 03:50:00 10° NW 03:55:15 28° WSW 03:56:54 25° SW visible
02 Jul 7.2 01:31:07 10° NNW 01:36:59 41° NE 01:42:11 13° ESE visible
02 Jul 7.2 03:14:21 10° NW 03:20:11 41° WSW 03:22:36 29° SSW visible
03 Jul 7.6 00:56:03 10° NNW 01:01:31 31° NE 01:07:04 10° ESE visible
03 Jul 6.8 02:38:54 10° NW 02:45:03 58° WSW 02:48:20 28° S visible
04 Jul 6.5 02:03:32 10° NNW 02:09:51 81° WSW 02:14:07 22° SSE visible
04 Jul 8.5 03:49:12 10° WNW 03:52:07 14° WSW 03:54:32 11° SW visible
